Location: Unspecified
(42.2619°N, 0.0000°E)
Time: 14:42:26
(UTC+00:00)

CSL-04 Debris - Visible Passes

Search period start: 04 April 2026 00:00
Search period end: 14 April 2026 00:00
Orbit: 818 x 840 km, 98.7° (Epoch: 29 March)

Date Brightness Start Highest point End Pass type
(mag) Time Alt. Az. Time Alt. Az. Time Alt. Az.
4 Apr 4.3 19:23:20 10° SSE 19:28:31 53° ENE 19:33:43 10° N visible
4 Apr 6.4 21:05:14 10° SW 21:09:05 20° W 21:12:58 10° NW visible
5 Apr 4.7 19:05:37 10° SE 19:10:29 37° ENE 19:15:23 10° N visible
5 Apr 5.9 20:46:13 10° SSW 20:50:48 29° W 20:55:25 10° NW visible
6 Apr 5.2 20:27:31 10° S 20:32:32 42° W 20:37:37 10° NNW visible
7 Apr 4.6 20:09:04 10° S 20:14:20 61° WSW 20:19:39 10° NNW visible
8 Apr 4.1 19:50:50 10° SSE 19:56:11 88° W 20:01:35 10° NNW visible
8 Apr 6.9 21:36:04 10° W 21:37:11 11° W 21:38:18 10° WNW visible
9 Apr 4.2 19:32:48 10° SSE 19:38:04 65° ENE 19:43:24 10° N visible
9 Apr 6.6 21:15:32 10° SW 21:18:48 16° W 21:22:05 10° NW visible
10 Apr 4.5 19:14:58 10° SE 19:20:01 45° ENE 19:25:07 10° N visible
10 Apr 6.2 20:56:14 10° SSW 21:00:28 24° W 21:04:44 10° NW visible
11 Apr 5.6 20:37:22 10° SSW 20:42:11 34° W 20:47:03 10° NNW visible
12 Apr 4.9 20:18:48 10° S 20:23:57 50° W 20:29:10 10° NNW visible
13 Apr 4.3 20:00:27 10° S 20:05:46 73° WSW 20:11:09 10° NNW visible
